Fort Eustis, VA

6:51 AM EDT on August 24, 2017 (GMT -0400)
Felker Army Air Field

Weather History for KFAF - October, 2011

Change the Weather History Date:

Monday, October 17, 2011

  Actual Average Record
Temperature  
Mean Temperature 72 °F -  
Max Temperature 80 °F 67 °F 83 °F (2016)
Min Temperature 63 °F 50 °F 44 °F (2001)
Cooling Degree Days 6    
Growing Degree Days 22 (Base 50)    
Moisture  
Dew Point 54 °F    
Average Humidity 59    
Maximum Humidity 83    
Minimum Humidity 43    
Precipitation  
Precipitation 0.00 in - - ()
Sea Level Pressure  
Sea Level Pressure 29.83 in    
Wind  
Wind Speed 7 mph (SW)    
Max Wind Speed 12 mph    
Max Gust Speed 18 mph    
Visibility 10 miles    
Events      
Averages and records for this station are not official NWS values.
T = Trace of Precipitation, MM = Missing Value Source: NWS Daily Summary

Daily Weather History Graph

Daily Weather History Graph

Search for Another Location

Airport or City:

Trip Planner

Search our weather history database for the weather conditions in past years. The results will help you decide how hot, cold, wet, or windy it might be!

Date:

Astronomy

Oct. 17, 2011 Rise Set
Actual Time 7:15 AM EDT 6:27 PM EDT
Civil Twilight 6:49 AM EDT 6:53 PM EDT
Nautical Twilight 6:19 AM EDT 7:23 PM EDT
Astronomical Twilight 5:49 AM EDT 7:53 PM EDT
Moon 10:11 PM EDT (10/17) 12:14 PM EDT (10/17)
Length of Visible Light 12h 03m
Length of Day
11h 11m
Waning Gibbous, 74% of the Moon is Illuminated
Oct 17
Waning Gibbous
Oct 19
Last Quarter
Oct 26
New
Nov 2
First Quarter
Nov 10
Full

Hourly Weather History & Observations

Time (EDT) Temp. Heat Index Dew Point Humidity Pressure Visibility Wind Dir Wind Speed Gust Speed Precip Events Conditions
12:55 AM 64.9 °F - 48.4 °F 55% 29.85 in 10.0 mi SW 8.1 mph 16.1 mph N/A   Scattered Clouds
1:55 AM 64.0 °F - 48.9 °F 58% 29.84 in 10.0 mi Variable 5.8 mph - N/A   Mostly Cloudy
2:55 AM 66.2 °F - 49.3 °F 54% 29.83 in 10.0 mi SW 9.2 mph 18.4 mph N/A   Mostly Cloudy
3:55 AM 65.5 °F - 49.8 °F 57% 29.83 in 10.0 mi SW 9.2 mph 17.3 mph N/A   Clear
4:55 AM 65.1 °F - 50.0 °F 58% 29.83 in 10.0 mi SW 11.5 mph - N/A   Clear
5:55 AM 64.2 °F - 50.4 °F 61% 29.84 in 10.0 mi SW 11.5 mph - N/A   Clear
6:55 AM 63.1 °F - 50.9 °F 64% 29.84 in 10.0 mi SW 10.4 mph - N/A   Clear
7:55 AM 63.9 °F - 50.5 °F 62% 29.85 in 10.0 mi WSW 8.1 mph - N/A   Clear
8:55 AM 66.9 °F - 51.4 °F 57% 29.86 in 10.0 mi Variable 3.5 mph - N/A   Overcast
9:55 AM 70.0 °F - 53.6 °F 56% 29.87 in 10.0 mi SSW 5.8 mph - N/A   Partly Cloudy
10:55 AM 73.8 °F - 53.4 °F 49% 29.87 in 10.0 mi Variable 6.9 mph - N/A   Mostly Cloudy
11:55 AM 75.6 °F - 55.6 °F 50% 29.87 in 10.0 mi Variable 3.5 mph - N/A   Mostly Cloudy
12:55 PM 75.9 °F - 55.8 °F 49% 29.85 in 10.0 mi Variable 5.8 mph - N/A   Scattered Clouds
1:55 PM 76.6 °F - 56.3 °F 49% 29.81 in 10.0 mi Calm Calm - N/A   Clear
2:55 PM 80.1 °F 80.3 °F 56.1 °F 44% 29.80 in 10.0 mi West 5.8 mph - N/A   Clear
3:55 PM 79.5 °F - 56.1 °F 44% 29.80 in 10.0 mi West 5.8 mph - N/A   Clear
4:55 PM 80.1 °F 80.2 °F 55.6 °F 43% 29.79 in 10.0 mi West 5.8 mph - N/A   Clear
5:55 PM 77.9 °F - 57.6 °F 49% 29.81 in 10.0 mi SW 3.5 mph - N/A   Clear
6:55 PM 71.2 °F - 59.9 °F 67% 29.81 in 10.0 mi Calm Calm - N/A   Clear
7:55 PM 66.0 °F - 60.1 °F 81% 29.83 in 10.0 mi Calm Calm - N/A   Clear
8:55 PM 64.9 °F - 59.7 °F 83% 29.83 in 10.0 mi Calm Calm - N/A   Clear
9:55 PM 64.2 °F - 58.8 °F 83% 29.83 in 10.0 mi Variable 3.5 mph - N/A   Clear
10:55 PM 66.0 °F - 58.1 °F 76% 29.83 in 10.0 mi SSE 3.5 mph - N/A   Clear
11:55 PM 67.6 °F - 57.4 °F 70% 29.83 in 10.0 mi South 4.6 mph - N/A   Clear